Location: Theodore Roosevelt Nature Center
(40.5943°N, 73.5104°W)
Time: 13:32:30
(UTC-05:00)

XW-2C - Visible Passes

Search period start: 14 December 2019 00:00
Search period end: 24 December 2019 00:00
Orbit: 509 x 528 km, 97.5° (Epoch: 14 December)

Date Brightness Start Highest point End Pass type
(mag) Time Alt. Az. Time Alt. Az. Time Alt. Az.
14 Dec ? 05:40:38 10° NNE 05:44:26 58° E 05:48:11 10° S visible
14 Dec ? 17:55:32 10° SW 17:58:24 20° W 18:01:18 10° NW visible
15 Dec ? 05:26:47 10° NNE 05:30:22 38° E 05:33:57 10° SSE visible
15 Dec ? 17:40:58 10° SSW 17:44:18 30° W 17:47:41 10° NW visible
16 Dec ? 05:13:04 10° NE 05:16:19 26° E 05:19:31 10° SSE visible
16 Dec ? 17:26:37 10° S 17:30:14 45° W 17:33:55 10° NNW visible
17 Dec ? 04:59:33 10° NE 05:02:12 18° E 05:04:51 10° SE visible
17 Dec ? 06:32:58 10° N 06:36:21 30° WNW 06:39:43 10° SW visible
17 Dec ? 17:12:26 10° S 17:16:12 70° W 17:20:01 10° NNW visible
18 Dec ? 04:46:31 10° ENE 04:48:04 12° E 04:49:38 10° ESE visible
18 Dec ? 06:18:44 10° N 06:22:25 44° WNW 06:26:03 10° SW visible
18 Dec ? 16:58:25 10° SSE 17:02:11 77° ENE 17:06:01 10° N visible
19 Dec ? 06:04:37 10° N 06:08:26 68° WNW 06:12:14 10° SSW visible
19 Dec ? 18:21:46 10° WSW 18:22:37 11° W 18:23:27 10° WNW visible
20 Dec ? 05:50:36 10° NNE 05:54:26 79° ESE 05:58:15 10° S visible
20 Dec ? 18:06:07 10° SW 18:08:28 16° W 18:10:50 10° NW visible
21 Dec ? 05:36:39 10° NNE 05:40:25 51° E 05:44:07 10° S visible
21 Dec ? 17:51:18 10° SSW 17:54:21 23° W 17:57:26 10° NW visible
22 Dec ? 05:22:50 10° NNE 05:26:21 34° E 05:29:49 10° SSE visible
22 Dec ? 17:36:47 10° SSW 17:40:15 33° W 17:43:46 10° NNW visible
23 Dec ? 05:09:09 10° NE 05:12:15 23° E 05:15:19 10° SSE visible
23 Dec ? 17:22:29 10° S 17:26:11 51° W 17:29:56 10° NNW visible
